Regional Weather Roundup
Issued by NWS Boston, MA

Home | Current Version | Previous Version | Text Only | Print | Product List | Glossary On
Versions: 1 2 3 4 5 6 7 8 9 10 11 12 13 14 15 16 17 18 19 20 21 22 23 24 25 26 27 28
000
ASUS41 KBOX 192310
RWRBOX

REGIONAL WEATHER ROUNDUP
NATIONAL WEATHER SERVICE TAUNTON MA
700 PM EDT SAT APR 19 2014

NOTE:  "FAIR" INDICATES FEW OR NO CLOUDS BELOW 12,000 FEET WITH NO
SIGNIFICANT WEATHER AND/OR OBSTRUCTIONS TO VISIBILITY.  THE FOLLOWING
OBSERVATION LOCATIONS DO NOT REPORT PRESENT WEATHER...PROVINCETOWN...
SMITHFIELD...BLOCK ISLAND...KEENE...AND OXFORD.

MAZALL-200000-
EASTERN MASSACHUSETTS

CITY           SKY/WX    TMP DP  RH WIND       PRES   REMARKS
BOSTON         MOCLDY    58  26  29 N14       30.26R
BEVERLY        CLEAR     54  26  34 NW14      30.27R
LAWRENCE       CLEAR     53  24  32 N16       30.29R
BEDFORD        CLEAR     55  28  35 N13       30.25R
BLUE HILL        N/A     55  25  31 N16G23    30.23R
NORWOOD        CLEAR     58  25  28 N8G18     30.25R
MARSHFIELD       N/A    N/A N/A N/A MISG        N/A
PLYMOUTH       PTCLDY    52  33  48 NE9       30.25R
TAUNTON        CLEAR     62  26  25 NW7       30.24R
NEW BEDFORD    PTCLDY    55  35  47 S7        30.25R
$$

MAZALL-200000-
CAPE COD AND THE ISLANDS

CITY           SKY/WX    TMP DP  RH WIND       PRES   REMARKS
FALMOUTH       PTCLDY    52  32  46 NE12      30.27R
HYANNIS        PTCLDY    53  33  46 N6        30.25R
CHATHAM        PTCLDY    54  31  41 N6        30.26R
PROVINCETOWN   CLEAR     46  37  71 MISG      30.27R
NANTUCKET      MOCLDY    47  39  74 CALM      30.26R
MARTHAS VNYRD  PTCLDY    56  31  38 E7        30.26R
$$

MAZALL-200000-
CENTRAL AND WESTERN MASSACHUSETTS

CITY           SKY/WX    TMP DP  RH WIND       PRES   REMARKS
WORCESTER      CLEAR     54  26  34 NW8       30.26R
FITCHBURG      CLEAR     56  25  30 NW13      30.28R
ORANGE         CLEAR     54  27  35 N12G22    30.28R
SPRINGFIELD    CLEAR     57  26  29 N13G22    30.26R
WESTFIELD      CLEAR     58  26  29 N13       30.27R
NORTH ADAMS    CLEAR     52  22  30 W8        30.31R
PITTSFIELD     PTCLDY    51  26  37 VRB7      30.28R
$$

RIZALL-200000-
RHODE ISLAND

CITY           SKY/WX    TMP DP  RH WIND       PRES   REMARKS
PROVIDENCE     MOCLDY    60  27  28 N10       30.25R
NEWPORT        PTCLDY    53  34  48 SE7       30.25R
BLOCK ISLAND   MOCLDY    57  30  35 SW6       30.24S
SMITHFIELD     CLEAR     57  27  30 N9        30.27R
WESTERLY       PTCLDY    57  31  37 S6        30.24R
$$

CTZALL-200000-
CONNECTICUT

CITY           SKY/WX    TMP DP  RH WIND       PRES   REMARKS
BRADLEY INTL   MOCLDY    59  25  27 N8        30.26R
HARTFORD       CLEAR     60  25  26 N12       30.25R
BRIDGEPORT     PTCLDY    63  28  26 NW13      30.25R
DANBURY        CLEAR     58  21  24 N12       30.28R
GROTON         PTCLDY    62  27  26 N9        30.23R
NEW HAVEN      PTCLDY    63  27  25 NW10      30.25R
CHESTER        FAIR      61  28  29 N7        30.25R
MERIDEN        CLEAR     62  27  26 N13       30.25R
WILLIMANTIC    CLEAR     60  22  23 N12G20    30.25R
OXFORD         PTCLDY    55  28  35 N12       30.28R
$$

MEZ002-015-021-024-NHZ003-005-008-011-012-014-VTZ005-008-200000-
NORTHERN NEW ENGLAND

CITY           SKY/WX    TMP DP  RH WIND       PRES   REMARKS
PORTLAND ME    PTCLDY    48  24  39 N15G21    30.28R
BANGOR ME      PTCLDY    43  22  43 NW20G36   30.26R
CONCORD NH     CLEAR     49  23  36 NW13      30.32R
MANCHESTER NH  MOCLDY    52  24  33 N21G29    30.28R
NASHUA NH      CLEAR     54  27  35 N15G23    30.29R
PORTSMOUTH NH  PTCLDY    50  25  38 NW15G26   30.28R
JAFFREY NH     CLEAR     50  24  36 VRB6      30.28R
KEENE NH       CLEAR     52  25  35 N12       30.31
BURLINGTON VT  PTCLDY    47  24  40 N10       30.37R
MT. WASHINGTON CLOUDY    18  14  86 NW49G58     N/A  WCI  -6
$$

NYZ052-076-200000-
EASTERN NEW YORK

CITY           SKY/WX    TMP DP  RH WIND       PRES   REMARKS
ALBANY         MOCLDY    56  22  26 NW12      30.32R
NEW YORK CITY  MOCLDY    61  24  24 E7        30.25R
$$

ANZALL-200000-
MARINE OBSERVATIONS

STATION/POSITION TIME  TEMP    WIND        PRES    VSBY  WAVE
                       AIR SEA DIR/SP/G                  HT/PER
                 (UTC) (F)     (DEG/KT/KT) (MB)    (MI)  (FT/S)
BOSTON BUOY      2250   47 41   20/ 10/ 12 1024.8R         3/ 9
BUZZARDS BAY     2200          140/ 11/ 12 1024.3R
NANTUCKET SOUND  2250   47 46  270/  2/  4 1024.6R         2/ 3
MASS BAY-STELLWA 2204   47 42  360/ 14/ 17 1022.6R  1 7/8  5/11
ISLE OF SHOALS   2300   49     310/ 18/ 21 1024.7R
S OF BLOCK IS    2225      42                N/A           3/10
$$

......................KEY.........................
  SKY/WX - SKY CONDITION/PRESENT WEATHER
  TMP    - TEMPERATURE IN FAHRENHEIT
  DWPT   - DEWPOINT IN FAHRENHEIT
  RH     - RELATIVE HUMIDITY IN PERCENT
  WIND   - DIRECTION AND SPEED IN MPH
  PRES   - MEAN SEA LEVEL PRESSURE IN INCHES OF HG
  WCI    - WIND CHILL INDEX
  VSB    - VISIBILITY IN MILES
  HX     - HEAT INDEX
  TC     - TEMPERATURE IN CELSIUS
  VRB    - VARIABLE WIND DIRECTION
  N/A    - NOT AVAILABLE



USA.gov is the U.S. government's official web portal to all federal, state and local government web resources and services.